Regional Weather Roundup
Issued by NWS Little Rock, AR

Home | Current Version | Previous Version | Text Only | Print | Product List | Glossary On
Versions: 1 2 3 4 5 6 7 8 9 10 11 12 13 14 15 16 17 18 19 20 21 22 23 24 25 26 27 28 29 30 31 32 33 34 35 36 37 38 39 40 41 42 43 44 45 46 47 48 49 50
000
ASUS44 KLZK 262105
RWRLZK

WEATHER ROUNDUP FOR ARKANSAS
NATIONAL WEATHER SERVICE LITTLE ROCK AR
400 PM CDT SUN APR 26 2015

NOTE: "FAIR" INDICATES FEW OR NO CLOUDS BELOW 12,000 FEET WITH NO
SIGNIFICANT WEATHER AND/OR OBSTRUCTIONS TO VISIBILITY.

ARZ001-003-010-029-262200-
NORTHWEST ARKANSAS

CITY           SKY/WX    TMP DP  RH WIND       PRES   REMARKS
FAYETTEVILLE   SUNNY     68  55  63 N9G20     29.79F
FORT SMITH     SUNNY     79  59  50 E14G22    29.72F
HARRISON       CLOUDY    59  50  72 VRB7      29.87F
BENTONVILLE    SUNNY     66  52  59 E13       29.83F
ROGERS         MOSUNNY   65  51  60 E13       29.83F
SILOAM SPGS    SUNNY     66  52  59 E12G17    29.81F
HIGHFILL       SUNNY     67  52  58 E16       29.81F
SPRINGDALE     MOSUNNY   64  54  68 NE15G23   29.83F
$$

ARZ004-005-016-262200-
NORTH CENTRAL ARKANSAS

CITY           SKY/WX    TMP DP  RH WIND       PRES   REMARKS
BATESVILLE     CLOUDY    59  48  67 NE9       29.88F
FLIPPIN        CLOUDY    57  46  67 NE7       29.87F
MTN HOME       CLOUDY    55  46  71 E7        29.88F
$$

ARZ040-041-262200-
WEST CENTRAL ARKANSAS

CITY           SKY/WX    TMP DP  RH WIND       PRES   REMARKS
MENA           SUNNY     84  59  42 SE5       29.73F
MOUNT IDA      SUNNY     78  60  53 VRB5      29.73F
$$

ARZ009-017-025-026-028-262200-
NORTHEAST ARKANSAS

CITY           SKY/WX    TMP DP  RH WIND       PRES   REMARKS
CORNING          N/A     59  48  67 CALM      29.90S
JONESBORO      CLOUDY    56  50  80 NE12      29.88F
NEWPORT        CLOUDY    61  51  69 N15       29.89F
WALNUT RIDGE   CLOUDY    57  46  67 N7        29.89F
BLYTHEVILLE    CLOUDY    58  49  72 N12       29.88S
$$

ARZ022-023-033-042-044-262200-
CENTRAL ARKANSAS

CITY           SKY/WX    TMP DP  RH WIND       PRES   REMARKS
LITTLE ROCK    CLOUDY    68  54  60 NE13      29.82F
N LITTLE ROCK  CLOUDY    67  59  76 E13       29.82F
JACKSONVILLE   CLOUDY    66  56  68 NE12      29.82F
SEARCY         CLOUDY    62  53  72 NE14      29.87F
HOT SPRINGS    MOSUNNY   76  60  57 E9G23     29.76F
RUSSELLVILLE   MOSUNNY   72  56  57 E9G17     29.79F
CLINTON        CLOUDY    64  55  72 E6        29.85F
$$

ARZ036-262200-
EAST ARKANSAS

CITY           SKY/WX    TMP DP  RH WIND       PRES   REMARKS
WEST MEMPHIS   CLOUDY    60  53  77 N10       29.85S
$$

ARZ050-053-066-070-073-262200-
SOUTHWEST ARKANSAS

CITY           SKY/WX    TMP DP  RH WIND       PRES   REMARKS
ARKADELPHIA    FAIR      80  65  60 VRB7      29.75F
CAMDEN         MOSUNNY   86  59  39 NE3       29.73F HX  85
TEXARKANA      MOSUNNY   84  64  50 NE9       29.69F HX  85
EL DORADO      PTSUNNY   86  60  41 NE6       29.72F HX  86
DE QUEEN       MOSUNNY   82  64  54 SE8       29.69F
$$

ARZ056-057-069-262200-
SOUTHEAST ARKANSAS

CITY           SKY/WX    TMP DP  RH WIND       PRES   REMARKS
PINE BLUFF     CLOUDY    69  59  70 NE14      29.80F
STUTTGART      CLOUDY    66  55  68 NE16      29.83F
MONTICELLO     MOSUNNY   77  64  64 NE8G17    29.77S

$$





USA.gov is the U.S. government's official web portal to all federal, state and local government web resources and services.